Theta_e
352 359 353 355 352 351 350 349 346 348 345 344 343 342 340 340 340 339 338 351 349 349 349 348 349 350 353 352 350 349 349 349 349 348 347 347 346 346 345 345 344 343 342
361 355 357 352 350 350 348 349 348 347 345 342 344 345 343 343 343 341 338 342 348 348 349 349 349 351 353 352 351 349 346 347 348 347 348 347 346 346 346 345 345 344 343
360 359 354 351 350 350 351 347 346 347 346 346 345 345 346 345 344 343 342 340 344 347 348 349 349 350 352 352 352 350 347 346 346 347 345 347 346 346 345 346 346 344 343
357 357 353 351 350 351 349 345 343 341 343 343 343 346 347 346 345 346 343 344 345 344 345 348 347 348 350 351 349 351 348 346 344 344 346 346 346 345 345 345 345 344 342
356 353 352 349 354 348 345 346 343 343 343 345 346 348 349 348 349 345 343 346 348 345 343 346 347 347 348 350 349 351 349 346 344 344 347 347 346 346 345 345 344 344 343
350 354 350 353 352 346 342 345 343 342 342 347 345 344 350 349 349 346 346 348 346 348 347 347 345 345 348 349 349 349 350 348 345 345 345 346 346 346 345 344 343 343 343
348 351 349 346 353 346 343 346 342 343 346 350 346 344 345 350 346 347 348 347 346 347 348 348 346 345 346 347 346 347 347 349 347 345 343 343 345 346 345 344 344 342 342
349 351 347 346 347 344 345 345 345 341 345 349 344 342 335 340 345 346 345 344 345 349 346 346 345 345 344 342 341 345 347 348 347 345 343 341 343 345 345 344 343 343 342
347 346 346 346 346 342 340 344 347 345 341 347 349 342 335 331 339 344 343 342 345 344 342 342 345 345 345 343 343 344 345 344 346 347 344 343 343 344 344 344 343 343 342
352 348 344 347 344 345 342 342 347 345 348 344 347 347 346 345 335 333 343 343 343 343 342 343 342 339 343 344 346 346 342 342 344 346 344 344 344 344 344 344 343 343 342
347 352 351 347 347 345 344 347 343 347 350 346 345 346 345 343 345 337 330 335 339 341 339 343 340 343 342 339 341 341 341 339 340 341 342 342 343 344 344 344 344 343 342
337 337 351 349 348 348 349 349 348 353 350 348 347 345 345 339 337 337 334 332 332 335 340 341 340 338 340 340 340 339 338 336 334 334 336 337 339 341 343 344 344 343 342
334 336 343 351 351 350 350 353 348 353 350 347 344 347 349 345 343 339 337 333 332 333 336 340 340 338 340 338 340 339 337 333 331 330 331 333 335 337 340 341 344 343 343
328 336 340 338 349 350 353 352 352 351 349 349 349 351 349 347 346 342 340 335 329 329 334 334 338 338 339 336 337 336 333 331 329 327 326 328 330 332 334 337 339 339 339
332 331 332 344 343 347 341 334 333 344 348 350 352 350 351 348 346 345 343 339 333 322 324 332 331 339 337 339 336 335 336 329 328 325 324 325 325 327 329 331 332 333 333
332 332 332 336 338 353 345 337 338 348 349 349 352 351 349 347 348 345 343 339 337 330 324 332 334 337 338 339 335 334 335 329 327 325 323 323 322 323 325 326 327 329 330
331 331 331 330 334 347 352 354 351 350 349 350 351 348 348 349 346 344 342 341 334 333 328 330 336 337 333 333 334 334 335 334 331 324 324 322 320 320 322 323 324 325 326
333 332 331 331 330 337 348 352 351 352 350 349 348 348 348 349 347 345 343 339 334 335 333 327 333 331 331 332 333 332 333 339 335 325 321 319 317 315 317 319 319 319 319
330 333 332 332 332 333 334 349 352 351 349 349 349 349 348 345 344 342 341 338 336 336 334 332 329 332 330 332 329 328 330 330 331 324 319 319 317 316 315 314 313 314 312
326 328 333 334 334 336 335 344 351 350 349 348 350 350 347 344 344 342 340 338 337 334 333 330 329 329 328 329 329 324 326 328 328 331 323 322 319 318 317 315 316 315 310
325 326 329 335 336 336 337 344 349 349 348 347 349 348 346 343 336 340 339 338 336 333 332 329 327 327 326 325 324 325 326 323 325 328 329 326 323 323 319 315 321 318 311
324 326 327 332 333 337 320 318 341 349 347 346 347 347 341 327 321 316 316 317 333 334 331 328 327 325 326 326 328 326 324 321 317 328 327 327 330 329 324 325 317 311 309
319 324 326 329 335 338 317 311 321 348 346 346 345 342 337 336 329 326 314 316 313 315 322 331 327 327 326 328 326 326 323 322 322 324 326 321 327 324 329 321 310 308 308
314 316 324 328 334 337 315 307 316 346 345 345 345 344 339 336 336 334 330 330 330 326 325 327 330 330 331 331 330 326 325 324 323 325 327 318 323 321 326 322 307 307 306
311 313 319 327 333 336 307 307 322 344 343 343 344 342 340 336 315 313 332 329 329 323 308 306 307 304 303 305 320 326 323 320 317 319 324 319 319 319 321 320 316 306 304
311 312 315 326 328 337 304 306 329 343 340 340 339 334 317 332 305 309 332 331 328 328 326 324 323 317 313 314 309 326 324 320 318 318 324 320 319 319 316 320 318 312 310
Wind_Speed
5 3 4 2 5 5 9 7 7 5 7 8 8 7 6 6 6 3 0 12 11 12 12 12 12 13 13 13 12 12 13 12 13 13 12 11 10 10 10 12 16 17 17
4 5 4 4 5 3 3 6 6 6 6 5 5 6 7 5 4 5 4 5 14 12 12 14 14 15 15 14 12 14 13 13 13 13 13 12 11 11 12 13 15 17 16
6 5 4 5 5 4 5 2 4 2 2 3 6 5 5 6 6 6 5 4 5 13 15 15 16 16 15 15 12 13 13 14 13 13 13 13 12 12 13 13 15 17 15
7 5 5 5 5 4 4 4 3 3 3 5 5 5 5 6 7 7 6 5 5 5 12 15 16 16 14 15 11 13 13 13 12 12 12 13 13 12 13 14 15 15 17
9 6 5 5 5 4 3 3 3 4 5 5 5 4 6 5 6 5 6 6 6 5 4 10 15 14 14 15 14 15 15 13 12 12 13 14 14 13 13 14 14 15 16
7 7 6 4 5 4 5 4 5 3 7 4 6 4 5 5 5 5 4 5 6 7 6 6 6 8 16 16 15 16 17 16 15 14 14 14 14 14 14 14 15 14 15
6 6 6 6 4 4 5 5 3 5 6 4 3 5 5 6 7 5 5 5 6 7 7 6 6 6 6 17 16 14 17 17 16 15 14 14 13 14 14 15 14 14 13
7 6 8 7 7 6 6 4 5 5 8 6 4 4 3 4 5 7 4 4 5 4 6 6 6 6 4 4 7 12 13 16 18 15 14 13 14 14 14 14 14 14 13
9 10 9 9 7 9 8 7 6 8 7 5 9 5 3 4 1 3 5 4 6 3 2 4 7 6 3 2 6 10 15 14 17 17 14 13 13 14 15 14 14 14 14
8 11 13 12 12 7 8 7 6 9 9 10 4 8 5 1 1 0 2 5 4 3 3 3 3 4 5 4 6 11 12 12 13 13 14 15 15 16 15 14 13 13 14
6 8 11 13 11 8 10 8 10 9 6 5 9 4 5 5 4 3 4 3 3 4 5 5 3 5 5 5 4 6 11 10 10 10 11 13 15 15 14 14 14 14 15
9 13 14 11 11 10 10 8 8 7 9 5 9 14 4 4 4 4 5 5 7 3 4 5 5 5 5 5 5 7 9 8 7 7 9 10 13 13 14 15 16 16 16
7 13 11 9 10 10 11 8 8 7 8 11 11 10 7 5 4 4 5 4 2 1 2 4 5 4 4 4 5 8 8 7 7 7 8 9 9 11 12 14 14 14 15
8 10 11 11 10 11 9 7 6 9 9 12 18 8 7 4 3 4 3 3 2 2 3 4 2 4 4 5 7 10 5 8 8 7 7 7 7 9 9 11 11 11 11
9 12 13 11 7 9 10 9 7 11 12 17 11 10 9 4 5 5 3 4 4 2 1 2 2 4 5 4 5 5 5 9 8 7 8 8 8 9 10 11 10 10 10
8 9 12 12 9 9 10 9 11 15 14 13 10 11 9 6 5 4 4 3 4 3 1 3 2 3 4 3 5 1 4 7 8 8 8 7 7 8 11 9 10 10 10
10 10 13 15 13 9 11 12 15 15 17 16 11 11 12 9 5 4 4 4 3 2 3 1 3 4 2 1 3 2 4 4 4 8 8 8 7 7 9 10 10 11 9
10 12 13 15 16 14 9 13 16 16 17 14 12 12 13 8 7 6 4 5 4 2 2 6 3 3 2 2 2 0 2 3 2 7 7 5 6 6 6 9 10 10 10
12 13 15 16 18 16 15 14 16 16 13 13 13 16 10 10 8 5 4 4 4 3 3 3 3 2 2 2 3 2 2 1 3 6 5 6 7 6 5 4 4 7 9
15 14 18 18 18 17 16 18 15 14 13 13 16 13 9 10 9 8 6 5 3 3 3 3 4 3 2 2 3 2 1 1 1 2 3 4 7 7 6 5 7 8 10
15 16 18 19 17 17 14 18 16 16 15 16 16 11 9 10 12 10 5 5 6 4 3 3 3 3 3 3 4 4 2 1 1 1 2 4 4 4 3 4 5 9 11
18 17 18 20 17 13 19 18 17 15 16 20 13 11 6 12 12 14 12 8 4 5 5 4 3 4 5 4 4 4 4 3 2 3 2 1 0 4 4 3 7 10 12
17 18 17 19 20 18 19 20 21 15 15 16 12 10 9 8 11 9 8 10 9 8 4 5 4 5 4 6 6 7 5 4 3 3 2 1 2 2 2 4 10 10 12
16 18 18 19 21 16 17 20 22 16 14 14 12 10 9 11 9 10 9 7 7 6 4 3 1 2 3 5 5 5 5 4 4 2 2 2 1 1 2 3 6 9 11
17 18 20 18 22 17 14 21 20 15 13 15 12 10 8 11 12 9 9 8 6 6 5 8 8 5 6 4 6 4 4 4 2 3 3 3 2 2 1 1 2 5 8
20 18 22 20 25 18 16 21 19 13 15 10 10 7 10 12 14 12 4 6 7 8 6 5 3 2 1 3 5 4 5 6 3 2 4 4 3 3 2 2 2 3 3
Wind_Direction
202 214 230 237 180 205 185 204 209 206 204 213 222 227 237 256 285 300 228 175 186 193 193 199 208 224 226 228 226 226 221 223 227 220 213 204 199 195 190 188 184 183 191
200 205 175 220 256 258 227 198 198 205 196 199 233 230 227 236 259 259 252 196 197 198 206 205 211 224 231 237 230 228 223 223 223 226 212 205 204 204 207 199 189 189 186
184 197 201 200 224 228 245 234 260 246 231 239 216 231 241 222 224 240 241 249 200 209 217 212 212 220 228 239 231 224 220 225 219 220 213 206 205 203 206 203 189 187 189
198 204 204 223 202 224 216 207 223 264 236 222 221 214 212 204 227 215 210 214 228 214 223 217 218 224 228 238 236 228 217 221 220 218 211 204 205 202 206 207 191 189 189
189 210 218 228 225 211 217 205 201 209 247 236 236 224 221 198 216 228 214 212 219 237 181 206 214 226 231 237 235 226 210 214 213 216 207 206 201 202 206 203 192 188 188
199 182 227 248 235 213 219 211 202 226 245 245 237 243 232 197 199 217 220 223 225 218 216 191 188 213 227 233 231 219 213 217 207 212 205 206 201 200 205 205 194 192 192
226 201 203 229 252 232 239 229 180 234 263 249 255 272 258 221 211 209 210 212 217 232 196 176 182 196 232 221 217 216 221 221 212 208 205 205 201 200 204 208 197 192 196
196 193 210 206 202 225 247 231 242 227 232 230 235 233 288 280 207 205 207 234 248 202 196 198 200 215 227 185 212 217 223 224 220 209 204 205 201 201 203 208 203 197 197
190 211 219 205 208 207 230 211 212 230 242 236 215 210 246 235 39 152 217 230 238 207 221 199 212 218 195 179 170 208 214 230 223 209 202 199 204 202 202 205 206 200 197
223 195 217 207 207 213 222 226 223 223 215 246 248 218 233 266 275 153 215 222 239 196 207 249 192 210 204 200 219 177 193 214 217 220 212 199 207 206 201 200 206 201 199
261 247 211 206 209 190 236 197 231 227 219 225 274 271 211 220 196 202 267 223 224 209 194 208 223 201 206 176 171 167 177 201 207 211 216 213 205 205 200 195 198 198 196
256 253 230 210 200 209 220 218 231 244 200 217 245 266 231 167 189 203 228 243 209 223 179 200 204 215 195 168 109 144 173 193 207 212 224 218 203 199 198 195 200 203 205
263 243 238 212 196 196 216 198 225 222 208 230 238 234 261 195 157 209 216 244 228 214 157 200 189 195 156 147 146 141 165 191 215 210 219 206 199 197 196 198 198 200 205
252 266 244 227 208 189 179 199 214 224 225 238 227 217 243 215 181 219 211 143 301 228 192 171 135 167 118 143 157 143 171 198 204 202 211 203 186 186 197 197 192 192 200
236 242 264 280 224 212 193 191 227 252 233 238 228 221 233 193 220 219 150 154 177 237 296 238 134 97 107 121 153 189 180 187 198 196 204 208 198 189 198 204 182 186 198
263 282 291 297 275 227 196 206 238 242 241 235 220 204 215 216 240 183 172 206 205 149 242 186 89 110 92 118 160 255 75 169 198 199 202 200 193 192 195 190 179 191 206
256 258 268 273 277 261 211 208 221 229 229 220 202 196 211 202 213 178 188 221 183 158 206 14 104 101 94 253 143 59 136 212 196 203 200 195 194 198 191 185 191 198 190
252 245 255 263 261 260 254 221 229 222 219 204 200 210 203 191 212 179 186 221 175 198 188 149 136 142 160 166 59 111 358 18 237 185 181 193 193 178 186 195 199 197 183
275 272 249 250 253 245 245 235 223 219 211 198 205 215 186 183 196 174 195 204 160 167 137 142 140 123 123 149 98 48 307 1 67 143 155 201 190 184 177 218 210 195 167
262 261 270 243 244 249 234 236 217 219 214 200 213 205 180 190 183 169 183 209 139 163 138 134 144 141 147 140 134 173 196 25 324 144 92 186 173 182 193 210 210 196 170
261 263 265 262 246 239 236 233 207 211 210 214 205 185 181 190 170 173 171 185 174 170 143 150 153 147 182 145 171 193 205 139 356 317 184 165 155 158 151 186 200 188 170
273 256 259 267 245 231 234 226 194 203 206 212 184 185 141 127 117 115 103 101 159 168 154 166 178 188 194 188 168 159 149 166 214 224 221 132 258 160 147 172 179 163 166
271 265 254 257 251 238 230 216 184 198 203 197 171 170 157 143 139 126 109 109 91 91 124 179 196 203 218 195 198 175 174 179 180 153 122 120 341 135 77 123 158 166 164
267 275 260 254 253 239 225 207 182 188 195 185 163 165 166 148 157 155 155 157 152 159 168 177 23 318 215 208 201 208 160 125 77 121 129 146 137 89 66 88 152 160 166
266 266 269 255 249 238 211 194 170 172 183 179 159 163 151 152 160 151 156 170 168 127 98 91 86 69 66 48 142 118 147 144 156 181 192 122 145 117 93 129 144 172 171
256 257 259 252 247 230 197 182 164 165 178 162 152 143 156 160 161 149 174 174 157 153 146 133 137 99 157 108 165 160 150 161 149 168 173 149 148 142 161 160 164 164 168